Pittsburg, KS

6:26 AM CDT on June 28, 2017 (GMT -0500)
Atkinson Municipal

Weather History for KPTS - December, 2013

Change the Weather History Date:

Thursday, December 19, 2013

  Actual Average (KJLN) Record (KJLN)
Temperature  
Mean Temperature 56 °F -  
Max Temperature 60 °F 46 °F 72 °F (1978)
Min Temperature 53 °F 27 °F 0 °F (1983)
Degree Days  
Heating Degree Days 8    
Growing Degree Days 6 (Base 50)    
Moisture  
Dew Point 49 °F    
Average Humidity 73    
Maximum Humidity 83    
Minimum Humidity 55    
Precipitation  
Precipitation 0.00 in - - ()
Sea Level Pressure  
Sea Level Pressure 29.75 in    
Wind  
Wind Speed 15 mph (SSW)    
Max Wind Speed 20 mph    
Max Gust Speed 29 mph    
Visibility 10 miles    
Events      
Averages and records for this station are not official NWS values.
T = Trace of Precipitation, MM = Missing Value Source: NWS Daily Summary

Daily Weather History Graph

Daily Weather History Graph

Search for Another Location

Airport or City:

Trip Planner

Search our weather history database for the weather conditions in past years. The results will help you decide how hot, cold, wet, or windy it might be!

Date:

Astronomy

Dec. 19, 2013 Rise Set
Actual Time 7:28 AM CST 5:03 PM CST
Civil Twilight 6:59 AM CST 5:32 PM CST
Nautical Twilight 6:26 AM CST 6:05 PM CST
Astronomical Twilight 5:54 AM CST 6:37 PM CST
Moon 7:27 PM CST (12/19) 8:50 AM CST (12/19)
Length of Visible Light 10h 33m
Length of Day
9h 34m
Waning Gibbous, 95% of the Moon is Illuminated
Dec 19
Waning Gibbous
Dec 25
Last Quarter
Jan 1
New
Jan 7
First Quarter
Jan 15
Full

Hourly Weather History & Observations

Time (CST) Temp. Dew Point Humidity Pressure Visibility Wind Dir Wind Speed Gust Speed Precip Events Conditions
12:15 AM 55.8 °F 39.7 °F 55% 29.87 in 10.0 mi SSW 18.4 mph 23.0 mph N/A   Clear
12:35 AM 55.8 °F 40.3 °F 56% 29.87 in 10.0 mi SSW 16.1 mph 23.0 mph N/A   Clear
12:55 AM 55.8 °F 40.8 °F 57% 29.86 in 10.0 mi SSW 17.3 mph 23.0 mph N/A   Clear
1:15 AM 55.8 °F 40.8 °F 57% 29.85 in 10.0 mi SSW 17.3 mph 24.2 mph N/A   Clear
1:35 AM 55.8 °F 41.0 °F 58% 29.85 in 10.0 mi SSW 16.1 mph 21.9 mph N/A   Clear
1:55 AM 55.8 °F 41.2 °F 58% 29.85 in 10.0 mi SSW 16.1 mph 20.7 mph N/A   Clear
2:15 AM 55.8 °F 41.5 °F 59% 29.85 in 10.0 mi SSW 15.0 mph 23.0 mph N/A   Clear
2:35 AM 55.8 °F 41.7 °F 59% 29.84 in 10.0 mi SSW 15.0 mph 24.2 mph N/A   Clear
2:55 AM 55.8 °F 42.1 °F 60% 29.84 in 10.0 mi SSW 15.0 mph 20.7 mph N/A   Clear
3:15 AM 55.8 °F 42.8 °F 62% 29.83 in 10.0 mi SSW 15.0 mph 26.5 mph N/A   Clear
3:35 AM 55.0 °F 42.4 °F 63% 29.82 in 10.0 mi SSW 13.8 mph 19.6 mph N/A   Clear
3:55 AM 54.5 °F 42.4 °F 64% 29.82 in 10.0 mi SSW 15.0 mph 21.9 mph N/A   Clear
4:15 AM 54.7 °F 43.0 °F 65% 29.81 in 10.0 mi SSW 13.8 mph 21.9 mph N/A   Clear
4:35 AM 55.4 °F 43.9 °F 65% 29.81 in 10.0 mi SSW 19.6 mph 24.2 mph N/A   Clear
4:55 AM 55.8 °F 44.6 °F 66% 29.80 in 10.0 mi SSW 17.3 mph 25.3 mph N/A   Clear
5:15 AM 55.8 °F 44.6 °F 66% 29.80 in 10.0 mi SSW 17.3 mph 24.2 mph N/A   Clear
5:35 AM 55.6 °F 44.8 °F 67% 29.80 in 10.0 mi SSW 15.0 mph 24.2 mph N/A   Clear
5:55 AM 53.4 °F 43.3 °F 69% 29.79 in 10.0 mi SSW 16.1 mph 19.6 mph N/A   Clear
6:15 AM 54.5 °F 44.4 °F 69% 29.79 in 10.0 mi SSW 16.1 mph 25.3 mph N/A   Clear
6:35 AM 55.2 °F 45.7 °F 70% 29.78 in 10.0 mi South 16.1 mph 23.0 mph N/A   Clear
6:55 AM 54.3 °F 45.3 °F 72% 29.79 in 10.0 mi SSW 17.3 mph 23.0 mph N/A   Clear
7:15 AM 55.8 °F 46.9 °F 72% 29.79 in 10.0 mi SSW 13.8 mph 21.9 mph N/A   Clear
7:35 AM 53.6 °F 45.7 °F 75% 29.79 in 10.0 mi SSW 17.3 mph 21.9 mph N/A   Clear
7:55 AM 53.2 °F 45.9 °F 76% 29.79 in 10.0 mi South 15.0 mph 21.9 mph N/A   Clear
8:15 AM 54.3 °F 47.1 °F 77% 29.79 in 10.0 mi South 17.3 mph 25.3 mph N/A   Mostly Cloudy
8:35 AM 55.8 °F 48.7 °F 77% 29.79 in 10.0 mi SSW 18.4 mph 26.5 mph N/A   Overcast
8:55 AM 55.8 °F 49.1 °F 78% 29.79 in 10.0 mi SSW 17.3 mph 23.0 mph N/A   Overcast
9:15 AM 55.8 °F 49.1 °F 78% 29.80 in 10.0 mi SSW 17.3 mph 24.2 mph N/A   Overcast
9:35 AM 55.8 °F 49.1 °F 78% 29.80 in 10.0 mi SSW 16.1 mph 24.2 mph N/A   Overcast
9:55 AM 55.9 °F 49.1 °F 78% 29.81 in 10.0 mi South 15.0 mph 23.0 mph N/A   Overcast
10:15 AM 57.6 °F 50.2 °F 76% 29.81 in 10.0 mi SSW 18.4 mph 21.9 mph N/A   Overcast
10:35 AM 58.3 °F 50.7 °F 76% 29.81 in 10.0 mi SSW 15.0 mph 23.0 mph N/A   Overcast
10:55 AM 58.3 °F 50.5 °F 75% 29.81 in 10.0 mi SSW 16.1 mph 24.2 mph N/A   Overcast
11:15 AM 58.3 °F 50.9 °F 76% 29.81 in 10.0 mi SSW 13.8 mph 21.9 mph N/A   Overcast
11:35 AM 58.3 °F 50.7 °F 76% 29.79 in 10.0 mi SSW 12.7 mph 26.5 mph N/A   Overcast
11:55 AM 58.3 °F 50.5 °F 75% 29.78 in 10.0 mi SSW 15.0 mph 18.4 mph N/A   Overcast
12:15 PM 58.3 °F 50.7 °F 76% 29.77 in 10.0 mi SSW 18.4 mph - N/A   Overcast
12:35 PM 58.3 °F 50.9 °F 76% 29.75 in 10.0 mi SSW 15.0 mph 23.0 mph N/A   Overcast
12:55 PM 58.3 °F 50.9 °F 76% 29.73 in 10.0 mi SSW 19.6 mph 28.8 mph N/A   Overcast
1:15 PM 58.3 °F 50.7 °F 76% 29.72 in 10.0 mi SSW 18.4 mph 25.3 mph N/A   Overcast
1:35 PM 58.3 °F 50.5 °F 75% 29.71 in 7.0 mi SSW 13.8 mph 26.5 mph N/A   Overcast
1:55 PM 58.3 °F 50.5 °F 75% 29.70 in 10.0 mi South 17.3 mph 24.2 mph N/A   Overcast
2:15 PM 58.6 °F 50.5 °F 74% 29.68 in 10.0 mi SSW 19.6 mph 27.6 mph N/A   Overcast
2:35 PM 59.2 °F 50.7 °F 74% 29.67 in 10.0 mi SSW 17.3 mph 20.7 mph N/A   Overcast
2:55 PM 58.8 °F 50.7 °F 74% 29.67 in 10.0 mi SSW 17.3 mph 23.0 mph N/A   Overcast
3:15 PM 59.9 °F 51.6 °F 74% 29.69 in 10.0 mi SSW 13.8 mph 21.9 mph N/A   Mostly Cloudy
3:35 PM 59.5 °F 51.3 °F 74% 29.68 in 10.0 mi SSW 13.8 mph 19.6 mph N/A   Overcast
3:55 PM 60.3 °F 52.0 °F 74% 29.67 in 10.0 mi SSW 13.8 mph 21.9 mph N/A   Overcast
4:15 PM 60.6 °F 52.3 °F 74% 29.68 in 10.0 mi SSW 12.7 mph 20.7 mph N/A   Overcast
4:35 PM 60.4 °F 52.3 °F 75% 29.68 in 10.0 mi SSW 12.7 mph 20.7 mph N/A   Overcast
4:55 PM 60.6 °F 52.5 °F 75% 29.69 in 10.0 mi SSW 16.1 mph 23.0 mph N/A   Overcast
5:15 PM 60.8 °F 52.7 °F 75% 29.68 in 10.0 mi SSW 16.1 mph 23.0 mph N/A   Overcast
5:35 PM 60.8 °F 52.3 °F 74% 29.68 in 10.0 mi SSW 16.1 mph 21.9 mph N/A   Overcast
5:55 PM 60.8 °F 52.5 °F 74% 29.69 in 10.0 mi SW 12.7 mph - N/A   Overcast
6:15 PM 60.8 °F 52.7 °F 75% 29.68 in 10.0 mi SSW 10.4 mph 18.4 mph N/A   Overcast
6:35 PM 60.8 °F 53.1 °F 76% 29.69 in 10.0 mi SSW 10.4 mph - N/A   Overcast
6:55 PM 59.7 °F 52.7 °F 78% 29.69 in 10.0 mi SSW 6.9 mph - N/A   Overcast
7:15 PM 58.3 °F 51.8 °F 79% 29.70 in 10.0 mi SSW 5.8 mph - N/A   Overcast
7:35 PM 58.3 °F 52.2 °F 80% 29.70 in 10.0 mi SSW 6.9 mph - N/A   Overcast
7:55 PM 58.3 °F 52.0 °F 80% 29.70 in 10.0 mi South 6.9 mph - N/A   Mostly Cloudy
8:15 PM 58.3 °F 52.3 °F 81% 29.69 in 10.0 mi South 8.1 mph - N/A   Overcast
8:35 PM 58.3 °F 52.7 °F 82% 29.68 in 10.0 mi South 9.2 mph - N/A   Mostly Cloudy
8:55 PM 58.5 °F 52.9 °F 82% 29.69 in 10.0 mi South 6.9 mph - N/A   Mostly Cloudy
9:15 PM 59.0 °F 53.2 °F 81% 29.69 in 10.0 mi South 8.1 mph - N/A   Mostly Cloudy
9:35 PM 59.9 °F 54.3 °F 82% 29.69 in 10.0 mi South 9.2 mph - N/A   Mostly Cloudy
9:55 PM 58.8 °F 53.6 °F 83% 29.69 in 10.0 mi South 8.1 mph - N/A   Mostly Cloudy
10:15 PM 59.4 °F 54.3 °F 83% 29.69 in 10.0 mi South 9.2 mph - N/A   Mostly Cloudy
10:35 PM 60.1 °F 54.9 °F 83% 29.69 in 10.0 mi South 5.8 mph - N/A   Overcast
10:55 PM 60.6 °F 55.0 °F 82% 29.69 in 10.0 mi South 8.1 mph - N/A   Overcast
11:15 PM 60.8 °F 54.9 °F 81% 29.68 in 10.0 mi South 8.1 mph - N/A   Overcast
11:35 PM 60.4 °F 55.0 °F 82% 29.68 in 10.0 mi South 8.1 mph - N/A   Overcast
11:55 PM 60.6 °F 55.0 °F 82% 29.68 in 10.0 mi South 6.9 mph - N/A   Overcast